Volver al catálogo

STARLINK-3068

ActivoComunicacionesVLEO
NORAD 49154·PAYLOAD·🇺🇸 United States

Lanzado Sep 14, 2021 desde Vandenberg Space Force Base

Loading…

Próximos Pases (próximas 24 horas)

TLE

ActualizadoSource: CelesTrak SupGP

Época: Sep 14, 2026, 21:49 UTC

1 49154C 21082AA  26257.90951389 -.00041046  00000+0 -35121-2 0  2579
2 49154  70.0013 158.7416 0002983 270.6544 179.3733 14.97546616    11

Sigue STARLINK-3068 en tiempo real con AllMySat

Download on the App Store